Location: Godiavel Galaoual
(15.2485°N, 12.6604°W)
Time: 20:29:24
(UTC+00:00)

Max Valier Satellite - Visible Passes

Search period start: 23 July 2021 00:00
Search period end: 02 August 2021 00:00
Orbit: 485 x 503 km, 97.3° (Epoch: 23 July)

Date Brightness Start Highest point End Pass type
(mag) Time Alt. Az. Time Alt. Az. Time Alt. Az.
23 Jul ? 21:18:43 23° N 21:18:43 23° N 21:20:13 10° N visible
24 Jul ? 20:57:14 18° NNE 20:57:14 18° NNE 20:58:32 10° NNE visible
25 Jul ? 20:35:45 11° NE 20:35:45 11° NE 20:36:01 10° NE visible
26 Jul ? 21:48:49 15° NW 21:48:49 15° NW 21:49:38 10° NNW visible
27 Jul ? 21:27:20 21° NNW 21:27:20 21° NNW 21:28:35 10° NNW visible
28 Jul ? 21:05:51 19° NNE 21:05:51 19° NNE 21:07:05 10° N visible
29 Jul ? 20:44:22 13° NE 20:44:22 13° NE 20:45:00 10° NNE visible
30 Jul ? 21:57:27 11° NW 21:57:27 11° NW 21:57:40 10° NW visible
31 Jul ? 21:35:58 17° NNW 21:35:58 17° NNW 21:36:50 10° NNW visible
01 Aug ? 21:14:28 18° N 21:14:28 18° N 21:15:30 10° N visible
